Tracking 31027 objects as of 19-Jul-2025
HD Live streaming from Space Station
objects crossing your sky now

NOAA 16 DEB

Track NOAA 16 DEB now!
10-day predictions


NORAD ID: 42422
Int'l Code: 2000-055TS
Perigee: 786.5 km
Apogee: 805.5 km
Inclination: 98.8 °
Period: 100.6 minutes
Semi major axis: 7167 km
RCS: Unknown
Launch date: September 21, 2000
Source: United States (US)
Launch site: AIR FORCE WESTERN TEST RANGE (AFWTR)

Note: This is SATELLITE DEBRIS
Your satellite tracking list
STARLINK-31009
Track 1 satellite(s)




NASA's NSSDC Master Catalog

Two Line Element Set (TLE):
1 42422U 00055TS  25199.23302043  .00003427  00000-0  13219-2 0  9991
2 42422  98.7789 296.4967 0013256 185.8060 174.2971 14.30856843479184
Source of the keplerian elements: AFSPC